hit tracker
Casino Online
Agen Bola

Jackpot

Texas Poker Multi Jackpot System

Kini Telah hadir Jackpot SUPER ROYAL FLUSH

Kini Telah hadir Jackpot 2000 (khusus table VIP keatas).

Ikutilah global jackpot yang tersedia di system kami, dengan system jackpot terbaru dan pertama di indonesia, anda dapat membeli jackpot dengan harga 100 rupiah saja dan menangkan hadiahnya hingga puluhan juta rupiah.

Jackpot bukanlah suatu keharusan untuk dibeli, namun kami memberikan suatu fitur tambahan untuk member tercinta dari www.mukapoker.biz.

Terdapat tiga pilihan harga jackpot yang bisa anda beli yaitu :100,500,1000 dan 2000(khusus table VIP Keatas) rupiah.

Hadiah dari Multi jackpot system www.mukapoker.biz

  1. full house x 10 harga jackpot yang anda beli.
      (contoh:anda membeli 1000 maka:1000 X10 = 10.000)
  2. four of kind x 250 harga jackpot yang anda beli
      (contoh:anda membeli 1000 maka:1000 X250 = 250.000)
  3. Straight flush x 1200
      (contoh:anda membeli 1000 maka:1000 X1200 = 1.200.000)
  4. Royal flush x 10000 harga jackpot yang anda beli
      (contoh:anda membeli 1000 maka:1000 X10000 = 10.000.000)
  5. SUPER ROYAL FLUSH x 30000 harga jackpot yang anda beli
      (contoh:anda membeli 1000 maka:1000 X30000 = 30.000.000)

Kondisi kartu

  1. full house adalah kondisi kartu dimana kartu anda dan kartu tengah dengan total 7 kartu bisa mendapatkan nilai 5 kartu dengan kombinasi 1 tris(three of kind) dan 1 pair, contoh 3 kartu 10 dan 2 kartu 5
  2. Four of kind adalah kondisi kartu dimana kartu anda dan kartu tengah dengan total 7 kartu bisa mendapatkan nilai 5 kartu dengan kombinasi 4 kartu yang sama jumlah dan 1 kartu apapun juga contoh anda mendapatkan 4 buah kartu angka 3 dan 1 kartu apapun.
  3. Staright flush adalah kondisi kartu dimana kartu anda dan kartu tengah dengan total 7 kartu bisa mendapatkan nilai 5 kartu dengan kombinasi seri / staright dengan kembang yang sama contoh : urutan kartu dari angka 5, 6, 7, 8 , 9 10 dengan kembang yg sama misalnya as hati
  4. Royal flush adalah kondisi kartu dimana kartu anda dan kartu tengah dengan total 7 kartu bisa mendapatkan nilai 5 kartu dengan kombinasi seri / staright dengan kembang yang sama tetapi kartu tersebut haruslah dimulai dari 10. contoh 10, Queen, Jack, King dan aces dengan kembang yang sama
  5. Super Royal flush adalah kondisi kartu dimana Kedua kartu anda digabung dengan 3 kartu pertama meja haruslah royal flush. contoh kartu anda 10,Queen kembang sama dan 3 kartu pertama meja adalah Jack, King dan aces dengan kembang yang sama

Demikian adalah penjelasan dari Multi Jackpot www.mukapoker.biz terima kasih dan selamat bermain salam hoki dari kami

Texas Poker Jackpot Winner

TOP SUPER ROYAL FLUSH
No.TanggalNamaPriceWin
120/07 10:40FEBRI0999Super Royal flush30,000,000
220/07 09:58ASUKARYOSuper Royal flush3,000,000
320/07 05:03CICKEN77Super Royal flush30,000,000
420/07 03:09PZ1Y1HU207Super Royal flush15,000,000
520/07 01:37DZ5DS9HI48Super Royal flush6,000,000
TOP ROYAL FLUSH
No.TanggalNamaPriceWin
120/07 11:37THE_DALZ04Royal flush2,000,000
220/07 11:32DD78RDRoyal flush10,000,000
320/07 11:19AYAM2555Royal flush5,000,000
420/07 11:14JESSICAFRARoyal flush2,000,000
520/07 11:07JEL11J0P25Royal flush10,000,000
TOP STRAIGHT FLUSH
No.TanggalNamaPriceWin
120/07 11:34SIVVA11Straight Flush120,000
220/07 11:29MOPI11Straight Flush1,200,000
320/07 11:28CHORAIZStraight Flush1,200,000
420/07 11:26BRILIAN345Straight Flush240,000
520/07 11:23MLYTAASSStraight Flush240,000
LATEST JACKPOT
No.TanggalNamaPriceWin
120/07 11:39MONA121314Full House1,000
220/07 11:39TQZYRTD62EFull House5,000
320/07 11:39LALAKKOEFull House2,000
420/07 11:39KUDO1688Full House2,000
520/07 11:39NRL20Four Of A Kind250,000
620/07 11:39DREAM24Full House2,000
720/07 11:39B8C31B3CFull House2,000
820/07 11:39BLANK888POFull House2,000
920/07 11:39MUGO1803Full House1,000
1020/07 11:39GNDN20Full House2,000
1120/07 11:39BDP2017Full House5,000
1220/07 11:39K4ZUT0Full House2,000
1320/07 11:39FITBULL88Full House2,000
1420/07 11:39NURCAHAYUFull House2,000
1520/07 11:39GO40GEITMGFull House5,000
1620/07 11:39E52C825CFull House5,000
1720/07 11:39CEPOGEM88Full House2,000
1820/07 11:39ZUCK77Full House1,000
1920/07 11:39BENNNNNNNFull House2,000
2020/07 11:39VANHUIFull House10,000
2120/07 11:39E1C2AAA3Four Of A Kind50,000
2220/07 11:39BP888432Full House5,000
2320/07 11:39D3W4BETFull House5,000
2420/07 11:39ACHUN88Full House5,000
2520/07 11:39REZAPUTFull House5,000
2620/07 11:39GHO_PALFull House1,000
2720/07 11:39S888888Full House5,000
2820/07 11:39STEVENLEEYFull House2,000
2920/07 11:39BIM3007Full House10,000
3020/07 11:39INDAHDINAFull House10,000
3120/07 11:39ILAM703Full House10,000
3220/07 11:39STEMPLET41Full House10,000
3320/07 11:39BARCA878Full House10,000
3420/07 11:39COROK71Full House10,000
3520/07 11:38E449C856Full House2,000
3620/07 11:38UNTUNGKUNCFull House5,000
3720/07 11:38NUNUGOMEZFull House1,000
3820/07 11:38SWYCF00VQGFull House2,000
3920/07 11:38JOSFAHMIFull House1,000
4020/07 11:38MATKADIR__Full House10,000
4120/07 11:38RASJUN12Full House2,000
4220/07 11:38JESSICAFRAFull House5,000
4320/07 11:38SY4IFUDINFull House2,000
4420/07 11:38WEW93Full House1,000
4520/07 11:38BAF25970Full House2,000
4620/07 11:38ASWI82Full House5,000
4720/07 11:38NESH4Full House1,000
4820/07 11:38ADAMH4W4Full House2,000
4920/07 11:38BOPONG1999Full House2,000
5020/07 11:38XX1983XFull House2,000

Domino Multi Jackpot System

Ikutilah global jackpot yang tersedia di system kami, dengan system jackpot terbaru dan pertama di indonesia, anda dapat membeli jackpot dengan harga 100 rupiah saja dan menangkan hadiahnya hingga puluhan juta rupiah.

Jackpot bukanlah suatu keharusan untuk dibeli, namun kami memberikan suatu fitur tambahan untuk member tercinta dari www.mukapoker.biz.

Terdapat tiga pilihan harga jackpot yang bisa anda beli yaitu :100,500 dan 1000 rupiah.

Hadiah dari Multi jackpot system www.mukapoker.biz

  1. Murni Kecil x 50 harga jackpot yang anda beli.
      (contoh:anda membeli 1000 maka:1000 X 50 = 50.000)
  2. Murni Besar x 50 harga jackpot yang anda beli
      (contoh:anda membeli 1000 maka:1000 X 50 = 50.000)
  3. BALAK x 100 harga jackpot yang anda beli
      (contoh:anda membeli 1000 maka:1000 X 100 = 100.000)
  4. ENAM DEWA x 6666 harga jackpot yang anda beli
      (contoh:anda membeli 1000 maka:1000 X 6666 = 6.666.000)

Demikian adalah penjelasan dari Multi Jackpot www.mukapoker.biz terima kasih dan selamat bermain salam hoki dari kami

Domino Jackpot Winner

TOP ENAM DEWA
No.TanggalNamaPriceWin
120/07 11:22G42Kmurni enam6,666,000
220/07 10:51KINGMAS77murni enam6,666,000
320/07 09:44CODAGUSmurni enam6,666,000
420/07 09:42BAKAR056murni enam3,333,000
520/07 08:49IBP89424murni enam3,333,000
TOP BALAK
No.TanggalNamaPriceWin
120/07 11:35J4LI8888balak50,000
220/07 11:30NGELUUbalak10,000
320/07 11:29BARRE55balak50,000
420/07 11:23DOTRES01balak100,000
520/07 11:22MBOBBAEbalak100,000
LATEST JACKPOT
No.TanggalNamaPriceWin
120/07 11:39CIRO23murni kecil25,000
220/07 11:38MASTER0087murni kecil50,000
320/07 11:37ADI8900murni kecil5,000
420/07 11:37MELON88murni besar25,000
520/07 11:369035lucky9925,000
620/07 11:36DUEETT999murni kecil50,000
720/07 11:35J4LI8888balak50,000
820/07 11:35IWIWIWIWImurni kecil50,000
920/07 11:35IYANMAYAUmurni kecil25,000
1020/07 11:34SHANGYANG9murni kecil50,000
1120/07 11:34ROBICOCO13murni besar50,000
1220/07 11:34IBUSUBERmurni kecil50,000
1320/07 11:33A945WDmurni kecil25,000
1420/07 11:33BAIM_16murni kecil5,000
1520/07 11:32YAS999murni besar25,000
1620/07 11:32WITHDRAWNPmurni besar50,000
1720/07 11:32DOTRES01murni besar50,000
1820/07 11:32BONEKA76murni besar50,000
1920/07 11:31CICIS99murni kecil25,000
2020/07 11:31ARIFABEL9murni kecil50,000
2120/07 11:30JAGOA46murni kecil50,000
2220/07 11:30YESUS224X6murni kecil50,000
2320/07 11:30LDYBALAK90murni besar50,000
2420/07 11:30HOUTEN81murni besar25,000
2520/07 11:30NGELUUbalak10,000
2620/07 11:29POERBAmurni kecil50,000
2720/07 11:29BARRE55balak50,000
2820/07 11:28REY181murni kecil5,000
2920/07 11:28RIFER07murni besar5,000
3020/07 11:28AGGGUNGmurni besar50,000
3120/07 11:26IQWIEBS3EQmurni besar50,000
3220/07 11:26INDBD7D30Nmurni besar25,000
3320/07 11:25BOWONYAmurni kecil50,000
3420/07 11:25KAKAP1818murni besar50,000
3520/07 11:25SIDE72murni besar50,000
3620/07 11:24OKNUMB6666murni besar50,000
3720/07 11:24TRUKAN89murni besar50,000
3820/07 11:24GASPUL84murni besar25,000
3920/07 11:24SYANDINGLmurni kecil5,000
4020/07 11:23DOTRES01balak100,000
4120/07 11:23BROOT86murni kecil25,000
4220/07 11:23AMMARRmurni kecil50,000
4320/07 11:22G42Kmurni enam6,666,000
4420/07 11:22MARKISlucky9925,000
4520/07 11:22HELOOImurni kecil50,000
4620/07 11:22MBOBBAEbalak100,000
4720/07 11:22T4DKHARIS19murni besar25,000
4820/07 11:21POERBAbalak100,000
4920/07 11:21O5V3FPZLFAlucky9910,000
5020/07 11:21AKIMILOmurni kecil5,000

Ceme Multi Jackpot System

Jackpot dilihat dari gabungan kartu pemain dengan kartu bandar. Bandar harus membeli jackpot sebanyak jumlah player yang sedang duduk. Sebagai contoh bila terdapat 3 pemain duduk bermain, dan bandar memutuskan untuk membeli jackpot Rp 1.000, maka pada periode tersebut bandar akan membeli jackpot sebanyak 3xRp1.000 = Rp3.000.

Jackpot bukanlah suatu keharusan untuk dibeli, namun kami memberikan suatu fitur tambahan untuk member tercinta dari www.mukapoker.biz.

Terdapat tiga pilihan harga jackpot yang bisa anda beli yaitu :100,500 dan 1000 rupiah.

Hadiah dari Multi jackpot system www.mukapoker.biz

  1. Murni Kecil x 50 harga jackpot yang anda beli.
      (contoh:anda membeli 1000 maka:1000 X 50 = 50.000)
  2. Murni Besar x 50 harga jackpot yang anda beli
      (contoh:anda membeli 1000 maka:1000 X 50 = 50.000)
  3. BALAK x 200 harga jackpot yang anda beli
      (contoh:anda membeli 1000 maka:1000 X 200 = 200.000)
  4. ENAM DEWA x 6666 harga jackpot yang anda beli
      (contoh:anda membeli 1000 maka:1000 X 6666 = 6.666.000)

Demikian adalah penjelasan dari Multi Jackpot www.mukapoker.biz terima kasih dan selamat bermain salam hoki dari kami

Ceme Jackpot Winner

TOP ENAM DEWA
No.TanggalNamaPriceWin
120/07 11:39ASAHAN123murni enam666,600
220/07 11:35JPMILKITAmurni enam3,333,000
320/07 11:34TTIOmurni enam6,666,000
420/07 11:34PIYAN85murni enam666,600
520/07 11:22NIRMALA017murni enam6,666,000
TOP BALAK
No.TanggalNamaPriceWin
120/07 11:39REJOKI09balak100,000
220/07 11:38ANDRIYODHAbalak200,000
320/07 11:38EMAS122balak200,000
420/07 11:38MVOL2K1AI3balak200,000
520/07 11:38ACHMADJUNIbalak100,000
LATEST JACKPOT
No.TanggalNamaPriceWin
120/07 11:39OX969WJJM3murni kecil25,000
220/07 11:39REJOKI09balak100,000
320/07 11:39ASAHAN123murni enam666,600
420/07 11:39RISWINDAM9murni kecil5,000
520/07 11:38WOWOR878murni kecil5,000
620/07 11:38JAPRI2231murni kecil50,000
720/07 11:38WIN9999murni kecil50,000
820/07 11:38PAKBEEKBROmurni kecil50,000
920/07 11:38PICEK223murni kecil5,000
1020/07 11:38COM04murni kecil50,000
1120/07 11:38IQX741AIY1murni kecil50,000
1220/07 11:38BALASDM3murni besar25,000
1320/07 11:38ANDRIYODHAbalak200,000
1420/07 11:38EMAS122balak200,000
1520/07 11:38CIKES66murni kecil50,000
1620/07 11:38DARZAM99murni besar25,000
1720/07 11:38PD4DKEONG88murni kecil50,000
1820/07 11:38RAJATE999Amurni kecil25,000
1920/07 11:38ZERO99murni besar25,000
2020/07 11:38MVOL2K1AI3balak200,000
2120/07 11:38ACHMADJUNIbalak100,000
2220/07 11:38CLUBPANbalak20,000
2320/07 11:38ADMEIR71balak200,000
2420/07 11:38CALYA90murni kecil50,000
2520/07 11:37RARARImurni kecil50,000
2620/07 11:37ALPIHENGmurni kecil25,000
2720/07 11:37SITISAN09murni kecil50,000
2820/07 11:37PUKILO99murni kecil25,000
2920/07 11:37GTX19murni besar50,000
3020/07 11:37F271DC9Amurni besar25,000
3120/07 11:37F271DC9Amurni besar25,000
3220/07 11:37UDHINK_777murni besar5,000
3320/07 11:37KARMILA201murni besar50,000
3420/07 11:37KRSW77murni besar50,000
3520/07 11:37TOMJERmurni kecil50,000
3620/07 11:37G4DAWENGmurni kecil25,000
3720/07 11:37TTRRIIbalak200,000
3820/07 11:37UY8VIIKSW7murni kecil5,000
3920/07 11:37OJODUMEHYOmurni besar25,000
4020/07 11:36CHOIRUL08murni besar50,000
4120/07 11:36COM04murni kecil50,000
4220/07 11:36ATENG145murni besar25,000
4320/07 11:36MINHO06balak200,000
4420/07 11:36FIWAN85balak200,000
4520/07 11:36MW500balak200,000
4620/07 11:36KANGGO1234murni kecil50,000
4720/07 11:36YQAKRIF9T5murni kecil50,000
4820/07 11:36JION78murni kecil50,000
4920/07 11:36GONDEZ55murni kecil50,000
5020/07 11:36MARISA8488murni kecil50,000